Vorticity
2 2 2 2 2 2 1 1 1 1 0 0 0 0 0 0 0 0 1 1 2 2 3 3 3 3 3 3 3 4 4 4 4 3 3 2 1 1 1 2 1 1 2 2 3 3 3 3 3 3 3 4 5 5 4 4 4 4 3 3 4 4 4 4 4 4 4 5 5 6 5 6 10 8 6 8 7 7 7 8 9 6 5 7 5 5 6 4
2 2 2 2 3 3 2 2 2 2 1 1 1 0 0 0 0 0 0 0 -0 1 1 1 1 2 1 2 2 2 3 4 3 3 3 3 2 2 1 1 1 0 1 1 2 2 2 3 3 2 2 2 3 3 3 3 3 3 2 3 3 3 4 4 4 4 4 5 5 5 5 4 6 7 5 5 7 5 5 10 11 7 8 12 8 7 9 7
3 3 3 3 3 3 3 3 3 3 2 2 2 1 1 1 1 1 0 1 1 0 0 -0 0 1 0 1 1 1 2 3 2 1 3 3 2 3 2 1 1 1 1 1 0 2 2 1 1 1 2 2 2 2 2 2 2 2 2 2 2 2 2 3 3 3 4 3 4 5 5 5 4 6 6 5 6 4 5 10 9 5 6 12 10 7 10 9
4 3 4 4 3 3 4 4 4 4 3 3 3 2 2 2 2 2 1 2 1 1 1 1 1 1 1 1 1 1 1 2 2 1 2 3 3 3 2 2 2 2 2 1 -1 0 1 0 0 1 2 1 2 2 1 1 1 -0 1 1 0 1 1 1 0 1 3 1 2 4 3 4 4 5 4 4 5 2 3 7 6 5 6 9 7 4 7 8
4 4 4 4 4 4 4 4 4 4 4 4 3 3 3 3 3 3 2 2 2 2 2 2 2 1 2 2 2 2 1 2 2 1 2 2 3 3 3 3 3 3 3 2 0 0 1 1 1 0 0 0 1 1 1 1 2 -1 -0 2 0 1 1 0 -1 -1 2 0 1 2 1 3 3 3 2 3 3 0 2 5 5 6 7 8 6 4 6 7
6 6 5 5 5 5 5 5 5 5 5 5 5 4 4 4 3 3 3 3 3 4 3 3 3 3 3 3 3 3 3 3 3 2 4 4 4 4 3 3 3 3 2 1 2 1 1 2 2 1 0 1 0 1 1 1 3 -1 -1 2 1 0 1 2 -0 -1 2 0 0 1 1 2 2 2 2 2 1 1 3 4 6 7 7 6 4 6 6 6
8 7 7 7 6 6 6 5 5 5 6 6 6 6 6 5 4 4 4 4 3 3 4 4 4 4 4 4 4 4 5 5 5 3 4 5 5 4 3 3 3 3 3 3 3 3 3 3 3 3 1 2 1 2 3 2 3 1 -2 2 2 0 2 3 0 -0 3 2 1 1 -1 0 2 2 2 3 2 2 2 2 7 8 6 4 2 4 4 4
8 8 7 8 8 8 8 7 7 7 7 7 6 7 7 7 7 6 5 5 4 3 3 3 4 4 4 4 4 5 6 7 7 6 5 6 6 5 4 3 3 3 3 3 3 2 3 3 3 4 2 2 1 1 2 2 3 2 -1 1 2 0 1 2 1 1 3 3 3 4 1 1 2 -0 1 5 4 3 2 2 5 5 4 4 3 4 4 3
5 5 6 6 6 6 7 7 7 8 8 8 8 8 7 7 7 7 7 7 7 6 5 4 3 3 3 4 3 4 6 5 6 7 7 8 7 7 5 4 5 5 4 4 4 3 3 3 3 4 3 3 2 1 3 2 3 3 1 1 0 1 1 1 1 1 2 1 2 4 4 5 4 1 2 4 4 2 3 4 3 1 2 4 5 4 4 4
4 3 3 3 3 4 4 4 5 5 6 6 6 7 7 7 7 7 8 7 8 8 7 7 6 6 5 5 5 4 6 4 5 7 7 8 8 8 7 6 6 6 5 5 5 5 4 4 4 5 4 4 4 3 3 3 3 4 4 3 3 3 3 2 2 3 4 2 -0 0 1 3 3 3 3 1 1 2 3 3 1 0 1 1 3 4 2 2
5 5 4 3 3 2 3 3 3 4 4 4 4 4 4 5 5 5 5 6 6 6 6 7 7 8 7 7 8 6 6 6 6 7 6 7 8 8 7 7 7 7 7 6 6 6 5 6 6 6 5 5 5 4 4 3 4 5 5 5 5 5 5 4 4 4 6 6 3 2 1 -0 1 2 4 2 2 3 2 1 0 1 2 0 0 3 2 1
5 6 6 6 5 5 4 4 3 4 4 4 4 4 4 4 4 4 4 4 4 5 5 5 5 6 7 8 9 8 8 7 7 7 7 7 7 7 6 6 7 7 7 7 6 7 6 7 6 6 7 6 5 5 4 3 3 4 6 6 5 5 5 6 7 4 5 7 6 6 5 2 1 1 2 2 2 3 3 2 2 2 3 3 2 3 3 2
6 6 6 6 6 6 6 6 5 5 5 5 5 5 5 5 5 5 5 5 5 5 5 5 5 5 6 6 7 7 7 8 7 8 7 6 6 7 5 5 7 6 6 6 7 7 7 7 7 6 6 6 6 6 5 5 6 6 7 9 8 6 5 7 9 7 5 6 7 8 8 6 5 5 3 3 4 4 4 4 5 5 4 4 4 6 6 5
8 8 7 6 7 6 7 7 7 6 6 6 6 6 6 5 5 5 4 4 3 3 3 4 5 6 6 7 8 8 7 7 8 8 7 7 8 7 6 6 7 6 6 6 6 5 5 5 5 6 5 6 5 3 5 7 8 9 8 8 9 9 9 8 7 7 7 8 7 8 10 9 7 8 6 5 8 7 7 8 8 7 6 5 6 8 8 8
7 7 8 8 7 6 6 6 7 8 8 7 6 6 6 6 5 4 3 3 2 2 2 3 4 4 5 7 9 9 7 7 8 8 6 6 8 8 8 8 6 6 7 7 6 6 5 5 5 6 6 6 4 5 8 8 8 10 9 7 7 9 11 10 8 9 9 10 10 9 12 11 9 11 9 7 9 11 12 11 10 11 10 9 8 9 9 9
1 3 4 6 7 7 6 6 6 7 8 9 8 7 6 6 6 5 4 3 2 3 3 4 6 5 5 7 8 8 9 8 8 6 6 7 7 6 6 6 6 7 7 7 7 7 6 7 7 6 7 6 5 7 7 6 9 8 7 8 9 10 13 14 14 11 10 11 11 11 12 14 13 12 11 9 10 12 11 10 11 15 14 11 10 10 12 11
4 4 3 3 5 6 6 6 5 5 6 8 9 8 7 6 5 6 5 4 4 4 3 4 5 5 6 9 8 7 8 7 7 7 7 6 6 6 6 5 6 6 7 7 7 7 7 7 7 7 6 6 6 8 8 8 8 5 7 10 11 12 13 17 17 13 11 11 11 13 12 14 13 10 10 11 11 11 10 10 12 15 15 13 12 12 13 11
9 10 8 5 4 5 5 6 6 5 4 4 6 8 8 8 7 6 6 5 5 4 4 4 4 4 5 9 9 7 6 5 6 6 7 6 6 6 5 5 5 6 6 6 6 7 8 7 7 7 6 6 8 9 7 6 5 5 7 7 8 10 10 14 15 9 8 8 9 11 11 12 9 6 7 9 10 10 9 8 10 14 15 14 14 15 14 13
10 11 13 10 7 5 5 6 7 7 6 5 4 4 5 7 8 7 6 5 5 4 4 3 4 3 3 4 5 5 6 6 4 4 4 4 4 5 6 6 5 6 5 5 6 7 7 7 6 7 7 8 10 7 4 4 5 5 5 5 5 6 5 6 5 1 2 5 6 7 9 9 7 4 4 7 10 11 10 9 10 11 12 13 15 13 9 10
9 10 13 14 13 9 7 6 6 7 7 7 7 5 4 4 6 7 7 6 5 4 3 1 3 3 0 0 2 4 5 6 6 5 4 3 4 4 4 4 4 5 5 5 5 5 5 6 6 7 8 8 7 4 3 5 4 3 2 3 3 1 -0 -1 0 2 3 6 8 8 8 9 9 7 4 4 9 11 11 10 11 10 10 10 8 5 5 6
7 9 10 11 13 12 11 9 7 7 6 6 7 7 6 5 5 5 6 6 6 5 3 2 2 0 0 0 1 3 2 1 2 3 4 4 4 3 2 3 3 4 4 4 4 3 5 6 4 5 8 8 5 3 4 6 5 5 3 2 2 1 -1 -0 3 5 4 6 9 8 8 11 10 8 6 5 8 11 10 10 11 9 8 6 1 3 6 5
5 6 7 8 10 11 12 12 11 9 8 7 7 7 7 6 6 6 5 4 5 5 4 4 2 1 3 1 1 2 2 1 -0 1 4 4 5 6 6 6 4 3 3 3 3 4 7 5 1 4 7 5 3 3 4 3 2 4 4 2 3 2 1 4 4 4 5 6 8 6 7 12 11 9 9 7 8 9 5 8 10 5 4 5 3 5 4 4
1 2 3 3 6 8 9 12 13 13 11 10 8 8 8 7 6 6 5 4 6 7 4 4 4 3 4 3 4 3 1 3 2 0 1 2 3 4 5 8 11 11 8 4 2 4 6 2 -2 1 3 3 4 4 3 2 1 3 3 1 1 1 3 6 3 3 6 5 4 4 6 11 11 11 12 10 11 8 3 7 8 3 4 5 4 5 2 4
2 4 4 2 2 2 3 6 9 12 13 13 12 11 10 10 9 8 5 3 4 7 7 5 5 6 6 6 5 4 3 4 5 4 4 5 5 4 5 8 11 13 15 14 9 6 4 2 2 3 3 5 5 3 3 4 3 2 1 -0 0 1 4 5 2 3 6 4 3 3 8 11 7 9 13 11 8 5 6 10 7 5 6 7 8 6 1 1
5 6 7 6 5 5 5 4 4 7 9 12 13 13 13 12 11 11 10 6 4 7 8 6 6 7 8 8 8 9 7 6 7 8 8 10 10 8 7 6 8 9 14 21 20 14 9 5 5 6 6 7 6 3 4 5 5 3 1 0 0 2 3 3 2 4 5 5 5 4 8 13 11 8 6 4 4 4 9 10 3 5 11 14 11 3 -1 3
6 6 8 7 7 10 10 8 7 5 5 8 10 12 13 12 13 12 12 11 7 8 9 8 9 8 9 10 10 10 5 5 10 7 8 13 13 11 9 9 9 6 8 16 17 16 14 10 8 8 8 8 7 6 4 6 8 4 0 -0 0 2 4 2 2 6 5 4 5 4 5 8 11 10 3 1 4 6 9 6 0 5 12 9 0 -2 5 8
5 6 7 7 6 9 11 9 8 7 6 6 7 9 10 10 12 11 14 13 6 6 9 9 8 8 10 11 12 13 8 9 14 9 10 15 14 13 11 8 9 7 9 11 8 11 17 17 13 11 11 9 6 6 6 7 8 5 2 2 2 3 4 3 3 5 4 3 3 4 3 1 1 2 1 3 7 6 6 5 2 4 7 3 -3 5 14 9
4 6 7 7 7 8 8 7 8 9 7 6 7 7 7 9 9 8 12 10 3 5 8 8 10 9 11 12 11 13 10 11 14 11 11 12 11 12 10 8 9 8 7 6 4 9 12 12 13 12 9 8 7 8 7 4 5 6 5 3 4 6 5 4 5 5 4 4 4 5 4 -1 -3 -2 1 6 9 7 6 5 2 -2 4 8 6 12 16 12
6 9 9 7 7 8 6 7 9 9 7 7 7 5 6 7 6 9 9 2 2 8 7 6 8 7 6 6 6 6 6 9 12 9 6 8 11 10 9 10 9 6 8 7 6 10 11 10 13 13 12 11 8 7 5 2 3 6 6 6 7 6 5 5 5 6 4 4 6 5 3 0 1 5 9 8 6 5 4 4 2 -1 7 12 5 6 15 19
13 11 10 6 6 4 1 3 8 11 10 8 6 6 8 6 6 9 4 -1 5 8 6 7 7 6 5 4 5 5 5 8 10 9 7 8 9 7 6 6 3 5 8 6 5 9 10 8 6 9 14 17 15 12 9 7 6 8 8 9 8 6 8 9 7 7 4 2 6 7 5 5 4 4 6 5 3 3 2 2 2 4 10 7 -4 -0 11 18
11 9 7 4 1 -0 2 4 6 12 14 11 6 3 3 4 4 4 -1 2 11 9 5 8 7 4 5 4 6 6 5 6 6 9 10 8 5 2 2 3 3 6 5 5 9 11 10 6 5 8 10 12 15 15 14 13 13 14 12 11 12 12 11 8 6 6 -1 -5 5 10 8 8 7 2 -1 1 3 5 5 7 6 5 9 7 5 12 13 12
-1 4 7 6 1 1 5 2 -1 7 15 19 19 14 14 14 6 3 5 5 7 6 4 7 6 5 6 6 6 6 6 6 6 8 8 5 3 2 1 1 1 2 2 3 7 9 9 8 5 6 7 9 13 14 14 16 15 14 14 13 12 9 8 7 6 4 -2 -6 5 12 10 10 10 7 8 8 7 9 9 7 6 4 5 6 11 18 11 8
-5 -2 3 8 7 5 5 3 4 7 6 9 11 9 17 20 6 7 18 14 6 4 2 1 3 4 5 5 5 4 3 2 3 5 3 0 0 2 3 4 3 4 4 4 3 3 5 6 4 4 7 8 10 12 14 17 14 9 9 12 11 8 10 10 6 3 1 0 6 10 7 7 6 6 11 10 5 7 5 2 4 4 1 -0 7 13 4 4
10 6 2 3 4 3 4 6 6 4 1 3 6 1 -2 -4 -7 4 18 17 15 15 9 7 8 9 10 10 8 7 6 6 7 9 9 7 6 7 6 8 13 15 11 7 6 7 9 12 7 4 8 7 3 6 11 13 11 8 8 7 3 5 8 9 6 4 6 6 7 7 2 -0 0 -0 1 2 1 3 4 3 2 -0 -1 -0 10 16 7 9
10 11 7 3 1 3 7 8 6 5 6 10 16 16 4 -9 -5 8 12 6 7 12 12 10 10 8 7 5 4 5 5 5 8 8 8 5 3 4 3 4 14 24 25 22 19 14 14 19 12 2 6 7 2 3 4 3 4 6 7 2 -2 -0 3 6 7 6 8 8 5 5 3 -2 -1 3 4 4 5 6 8 8 3 -0 -1 2 16 20 9 12
12 12 10 4 -1 2 7 9 6 5 10 13 11 10 6 4 9 11 7 1 -2 -0 2 4 5 5 3 2 2 4 2 -1 0 -0 -1 -0 1 3 2 1 3 5 5 7 8 6 10 19 16 6 6 7 5 6 4 3 6 6 1 -2 0 -1 -5 -0 8 9 7 6 3 1 3 1 1 8 11 6 3 4 6 6 5 5 3 9 21 16 4 10
16 15 12 10 6 6 9 9 5 1 3 7 8 7 4 3 6 7 5 3 1 -1 -1 1 3 1 1 2 1 2 1 1 2 1 0 3 7 5 2 3 2 -5 -10 -7 2 11 17 20 15 4 3 4 1 4 9 10 8 8 7 5 6 4 -1 0 8 13 15 15 9 1 -0 3 4 3 1 2 3 4 6 5 7 9 6 11 16 5 4 18
12 11 7 7 4 -1 0 2 3 2 -4 -7 1 12 10 1 2 11 11 7 7 7 7 9 7 2 3 4 3 2 2 3 3 1 1 2 4 5 3 7 8 3 1 2 4 5 3 8 10 -1 -6 -0 1 4 12 12 8 10 12 7 4 5 5 3 4 11 17 21 20 15 10 8 7 3 -0 4 7 5 5 4 8 12 7 8 10 3 9 21
11 9 5 5 3 -4 -7 -10 -13 -14 -15 -12 -3 6 10 8 5 4 1 4 13 15 14 16 12 6 3 2 2 1 2 5 2 1 4 5 5 3 1 8 12 9 9 5 1 1 0 7 15 9 3 6 8 9 9 7 7 10 12 9 6 7 9 9 11 10 7 7 11 19 18 6 3 8 6 6 7 3 3 3 3 7 6 8 10 2 5 14
10 7 4 8 10 6 3 -1 -6 -10 -11 -8 -6 -7 -3 3 4 -1 -6 1 13 12 10 15 19 20 15 7 4 3 4 11 11 8 9 5 3 1 -3 2 7 9 11 7 3 11 17 17 19 20 19 13 7 9 12 11 11 11 11 11 9 12 16 16 16 12 5 1 -2 4 12 2 -2 6 6 3 5 3 7 7 3 3 2 7 10 2 3 9
10 6 5 9 12 10 6 4 5 7 5 0 -4 -7 -10 -12 -7 -3 -6 -6 -7 -18 -25 -13 4 19 25 23 20 14 9 13 13 8 5 3 4 6 1 2 9 13 16 13 9 11 18 23 22 15 13 13 11 11 11 13 15 13 11 10 9 10 8 1 -1 2 4 3 -3 1 12 9 6 10 6 5 10 10 12 9 3 5 8 12 17 10 5 7
8 7 10 11 11 10 10 12 12 10 10 10 8 5 1 -4 -8 -10 -10 -9 -12 -23 -27 -17 -10 -9 -4 10 27 29 20 16 14 9 8 9 7 7 6 4 6 7 7 8 10 12 15 18 8 -7 -3 14 18 10 5 4 6 7 7 8 8 7 7 7 6 8 12 13 12 13 8 -2 5 12 3 3 11 9 8 6 4 8 10 12 19 11 -1 2
6 9 12 11 11 10 9 12 14 12 11 12 13 11 10 11 8 4 -1 -7 -11 -7 -1 5 7 -1 -13 -11 9 23 20 18 21 20 24 25 17 13 14 10 5 7 10 12 14 15 13 7 -1 -4 6 13 7 1 2 0 2 9 7 6 10 12 18 20 16 16 18 8 3 6 -1 -8 6 17 5 2 11 8 6 9 10 10 11 13 14 3 -5 3
8 9 10 11 12 11 9 9 11 14 16 15 14 14 12 12 12 12 10 -2 -6 8 18 21 31 44 42 31 27 24 14 14 23 26 31 41 41 31 19 8 9 19 28 33 31 20 10 7 7 5 -0 -5 -6 -1 4 6 13 15 8 9 18 17 16 15 9 10 9 -1 3 14 14 7 7 10 9 10 12 7 3 7 10 13 17 17 8 -6 -7 5
9 9 11 11 10 9 9 11 11 12 14 14 15 17 16 16 13 11 11 5 -2 -3 1 2 5 14 17 13 5 -8 -26 -29 -16 -12 -12 4 26 40 41 35 33 32 26 22 22 22 21 22 20 14 9 9 11 13 17 24 26 14 4 11 17 13 12 11 9 11 4 -0 15 24 13 -1 -10 -5 10 17 13 5 1 5 10 14 14 6 -0 -3 -1 7
9 9 9 10 13 13 11 11 10 11 12 11 12 13 12 13 14 12 13 14 9 -3 -11 -12 -16 -22 -24 -22 -15 -12 -17 -16 -7 -12 -29 -37 -33 -24 -10 -0 4 5 -8 -27 -27 -9 4 6 6 8 9 7 4 7 16 26 26 16 10 13 12 7 2 -2 0 7 5 5 15 15 4 -2 -3 -1 8 18 21 16 8 5 7 12 10 -1 -2 2 1 3
10 10 10 11 15 16 13 9 6 7 12 15 14 13 11 10 10 9 7 8 11 8 4 2 -3 -8 -9 -7 1 9 10 13 19 16 4 -3 -16 -32 -38 -40 -43 -38 -35 -38 -35 -27 -25 -21 -11 -3 -0 1 5 9 12 15 19 21 19 18 17 9 6 14 15 6 6 16 19 15 12 14 10 -1 -3 11 26 28 24 21 17 18 15 4 0 4 2 2
10 11 13 14 13 11 12 13 8 5 8 12 16 19 20 17 13 11 9 9 9 7 6 8 6 1 -1 -1 5 17 22 20 20 18 17 24 29 24 20 12 -2 -6 1 10 14 4 -6 -2 4 7 15 22 21 13 4 2 10 16 11 12 22 21 15 23 26 16 11 9 7 12 20 22 18 10 7 11 12 10 13 19 19 16 16 12 4 2 5 7
14 14 12 11 8 6 10 15 18 16 10 7 8 10 12 14 13 14 15 15 17 15 13 14 15 11 9 7 6 12 16 13 12 10 8 16 29 36 38 35 28 24 21 23 26 20 14 12 6 8 15 12 4 -1 -5 -5 1 6 -0 0 20 30 10 -9 -3 11 10 -2 -0 10 13 18 28 31 35 35 25 17 18 22 20 11 10 13 6 2 12 23
15 14 13 12 9 7 10 12 13 15 14 10 6 3 3 5 8 12 13 11 13 16 13 13 18 19 20 19 13 7 5 9 14 15 12 16 23 24 21 18 21 22 15 12 15 14 7 -2 -5 4 5 -8 -15 -12 -7 1 8 13 12 8 8 9 2 2 11 8 -3 -4 1 -6 -8 11 21 12 17 28 21 17 23 29 30 26 21 13 4 7 24 32
13 12 13 14 12 10 11 11 9 9 9 7 6 7 9 10 9 12 14 10 7 10 9 9 14 16 16 18 15 10 7 8 12 15 14 12 10 8 10 16 22 24 19 12 10 14 18 18 18 20 11 1 0 0 3 13 14 11 16 18 8 -4 -0 21 28 4 -11 -4 -8 -21 -12 3 -8 -23 -12 -7 -22 -24 -8 2 10 29 37 22 10 20 30 22
12 12 13 14 15 13 11 12 13 10 7 6 9 11 11 11 11 13 16 14 9 8 11 12 11 8 4 2 2 2 2 1 4 11 12 7 1 -0 6 15 19 22 27 28 26 28 30 25 22 22 18 17 23 25 24 21 12 3 -1 -8 -12 -10 -6 0 -2 -13 -14 -8 -13 -13 -9 -16 -22 -9 1 -10 -26 -28 -12 8 21 28 31 28 32 35 15 -9
Height
5883 5884 5884 5884 5884 5884 5885 5885 5885 5885 5885 5885 5885 5885 5885 5885 5885 5885 5884 5884 5884 5884 5884 5883 5883 5883 5883 5883 5882 5882 5882 5882 5882 5882 5881 5881 5881 5880 5880 5880 5879 5879 5878 5878 5877 5877 5876 5875 5874 5873 5873 5872 5871 5871 5870 5869 5868 5867 5867 5866 5865 5864 5864 5863 5862 5861 5861 5860 5860 5859 5858 5857 5857 5856 5854 5854 5853 5852 5852 5851 5851 5850 5849 5849 5848 5848 5847 5846
5882 5882 5882 5882 5882 5883 5883 5883 5883 5883 5883 5883 5883 5883 5883 5883 5883 5883 5883 5883 5883 5882 5882 5882 5882 5882 5881 5881 5881 5881 5881 5881 5881 5880 5880 5880 5879 5879 5879 5878 5878 5877 5877 5876 5876 5875 5875 5874 5873 5873 5872 5871 5870 5870 5869 5868 5867 5866 5866 5865 5864 5863 5863 5862 5861 5860 5860 5859 5858 5858 5857 5856 5856 5855 5854 5852 5852 5851 5850 5850 5850 5849 5848 5848 5846 5846 5846 5845
5880 5880 5880 5880 5881 5881 5881 5881 5881 5881 5881 5882 5882 5882 5882 5881 5881 5881 5881 5881 5881 5881 5881 5880 5880 5880 5880 5880 5879 5879 5879 5879 5879 5878 5878 5878 5878 5878 5877 5877 5876 5876 5875 5875 5874 5874 5873 5873 5872 5872 5871 5870 5869 5869 5868 5867 5866 5865 5864 5864 5863 5863 5862 5861 5860 5859 5859 5858 5857 5857 5856 5855 5854 5854 5853 5851 5850 5849 5849 5850 5849 5848 5847 5847 5845 5844 5845 5844
5877 5878 5878 5878 5878 5878 5879 5879 5879 5879 5879 5879 5879 5880 5880 5879 5880 5880 5880 5879 5879 5879 5879 5879 5879 5878 5878 5878 5878 5878 5878 5877 5877 5876 5877 5876 5876 5876 5875 5875 5875 5874 5873 5873 5872 5872 5871 5871 5870 5870 5869 5869 5868 5867 5866 5865 5865 5864 5863 5863 5862 5861 5861 5860 5860 5858 5858 5857 5856 5855 5855 5854 5853 5852 5851 5850 5848 5847 5848 5849 5847 5846 5846 5846 5844 5843 5843 5842
5875 5875 5875 5875 5876 5876 5876 5876 5877 5877 5877 5877 5877 5877 5877 5877 5877 5877 5877 5877 5877 5877 5877 5877 5877 5876 5876 5876 5876 5876 5876 5876 5875 5875 5875 5874 5874 5874 5873 5873 5873 5872 5871 5871 5870 5869 5869 5868 5868 5867 5867 5866 5866 5866 5865 5864 5863 5863 5862 5861 5860 5860 5859 5858 5858 5857 5856 5855 5854 5853 5853 5852 5851 5851 5849 5848 5846 5844 5846 5847 5845 5844 5844 5844 5844 5842 5841 5840
5872 5873 5873 5873 5873 5873 5873 5874 5874 5874 5874 5874 5874 5874 5874 5875 5874 5875 5875 5875 5875 5875 5875 5875 5874 5874 5874 5874 5874 5874 5874 5874 5873 5873 5872 5872 5872 5871 5871 5871 5870 5870 5869 5869 5868 5867 5866 5866 5865 5865 5864 5863 5863 5863 5862 5862 5861 5861 5860 5859 5859 5858 5857 5856 5856 5855 5854 5853 5852 5851 5851 5850 5849 5849 5848 5846 5843 5842 5843 5843 5843 5842 5842 5841 5841 5840 5839 5838
5870 5870 5870 5870 5870 5871 5871 5871 5871 5871 5871 5871 5871 5871 5871 5872 5871 5872 5872 5872 5872 5872 5872 5872 5872 5872 5872 5872 5872 5872 5872 5871 5870 5871 5870 5870 5870 5869 5869 5869 5868 5868 5867 5866 5866 5865 5864 5863 5863 5862 5862 5861 5860 5859 5859 5859 5858 5858 5858 5857 5856 5856 5855 5853 5853 5853 5851 5851 5850 5849 5849 5848 5847 5847 5847 5844 5841 5841 5840 5840 5840 5839 5839 5838 5838 5837 5837 5836
5867 5867 5867 5868 5868 5868 5868 5868 5868 5868 5868 5868 5868 5868 5868 5868 5868 5868 5868 5868 5869 5868 5869 5868 5869 5869 5869 5869 5869 5870 5870 5868 5867 5868 5868 5867 5867 5867 5867 5866 5866 5865 5865 5864 5863 5863 5862 5861 5860 5859 5859 5858 5857 5857 5856 5856 5855 5855 5855 5854 5854 5853 5852 5851 5850 5850 5848 5848 5847 5846 5846 5845 5843 5844 5845 5842 5838 5838 5838 5837 5837 5837 5836 5836 5835 5835 5834 5833
5864 5864 5865 5865 5865 5865 5865 5866 5866 5866 5866 5866 5865 5865 5865 5865 5865 5865 5865 5865 5865 5865 5865 5865 5865 5865 5865 5865 5866 5868 5867 5865 5864 5865 5865 5864 5864 5864 5864 5864 5863 5863 5862 5861 5861 5860 5859 5858 5858 5857 5856 5856 5855 5854 5853 5853 5852 5852 5851 5851 5851 5850 5849 5848 5847 5846 5845 5844 5843 5842 5842 5842 5840 5841 5843 5840 5836 5835 5835 5834 5834 5834 5834 5833 5833 5832 5831 5830
5861 5861 5861 5862 5862 5862 5862 5863 5863 5863 5863 5863 5863 5862 5862 5862 5862 5862 5862 5862 5861 5861 5861 5861 5861 5861 5861 5861 5862 5865 5863 5861 5862 5862 5861 5861 5861 5861 5861 5860 5860 5860 5859 5859 5858 5857 5856 5855 5855 5854 5853 5853 5852 5851 5850 5850 5849 5848 5847 5847 5848 5846 5846 5845 5844 5843 5841 5841 5840 5838 5837 5838 5837 5839 5840 5837 5834 5833 5831 5831 5830 5830 5830 5829 5829 5829 5828 5828
5858 5858 5858 5858 5858 5859 5859 5859 5859 5859 5859 5860 5860 5859 5859 5859 5858 5858 5858 5858 5858 5858 5857 5857 5857 5857 5857 5857 5859 5861 5859 5858 5858 5858 5858 5857 5857 5857 5857 5857 5856 5856 5856 5855 5855 5854 5853 5852 5851 5850 5850 5850 5849 5848 5848 5847 5845 5844 5842 5843 5844 5842 5842 5842 5840 5839 5837 5836 5836 5833 5832 5834 5833 5835 5836 5833 5831 5831 5829 5828 5827 5826 5826 5825 5825 5825 5825 5825
5854 5854 5854 5855 5855 5855 5855 5855 5856 5856 5856 5856 5856 5856 5856 5856 5855 5855 5854 5854 5854 5854 5853 5853 5853 5852 5852 5854 5856 5856 5855 5855 5855 5854 5854 5853 5853 5854 5853 5853 5853 5852 5852 5852 5851 5850 5849 5849 5848 5847 5846 5846 5846 5845 5845 5844 5842 5840 5838 5838 5840 5838 5837 5839 5836 5835 5834 5832 5831 5827 5826 5830 5830 5830 5830 5829 5828 5828 5826 5825 5824 5823 5823 5822 5821 5821 5821 5820
5851 5851 5851 5851 5851 5851 5851 5852 5852 5852 5852 5852 5852 5852 5852 5852 5852 5851 5851 5850 5850 5850 5850 5849 5849 5849 5848 5850 5853 5851 5850 5851 5850 5850 5850 5849 5850 5850 5850 5849 5849 5849 5848 5848 5848 5847 5845 5845 5844 5843 5843 5842 5842 5841 5840 5840 5838 5837 5834 5832 5834 5832 5833 5836 5832 5830 5830 5828 5827 5822 5819 5825 5828 5825 5823 5822 5823 5824 5823 5821 5820 5820 5819 5817 5816 5816 5817 5816
5847 5847 5847 5847 5847 5847 5847 5848 5848 5848 5848 5847 5848 5847 5847 5847 5848 5847 5847 5846 5846 5846 5846 5845 5845 5844 5844 5847 5850 5848 5847 5846 5846 5846 5845 5844 5845 5845 5846 5846 5845 5845 5845 5844 5844 5843 5842 5841 5839 5839 5839 5839 5838 5837 5836 5835 5834 5834 5830 5828 5828 5826 5828 5832 5828 5826 5824 5822 5823 5817 5814 5820 5824 5822 5819 5815 5816 5818 5819 5818 5817 5816 5815 5813 5812 5811 5811 5811
5843 5843 5843 5843 5843 5843 5843 5843 5843 5843 5843 5843 5843 5842 5842 5842 5843 5843 5842 5843 5843 5842 5841 5841 5841 5840 5839 5843 5846 5845 5843 5842 5841 5841 5840 5840 5841 5841 5842 5841 5841 5841 5841 5840 5839 5839 5838 5837 5835 5835 5835 5835 5835 5832 5831 5830 5831 5829 5824 5824 5824 5821 5822 5825 5823 5823 5819 5816 5817 5813 5810 5814 5817 5818 5817 5810 5808 5810 5812 5814 5813 5812 5811 5810 5808 5807 5806 5806
5839 5839 5839 5839 5839 5838 5838 5838 5839 5839 5839 5839 5838 5837 5837 5837 5838 5838 5838 5839 5839 5838 5837 5836 5837 5835 5833 5838 5842 5841 5840 5838 5836 5836 5836 5836 5836 5837 5838 5837 5836 5836 5836 5835 5835 5834 5834 5832 5831 5831 5831 5832 5831 5828 5825 5825 5828 5825 5818 5817 5819 5817 5816 5817 5818 5818 5814 5810 5810 5808 5807 5809 5811 5812 5812 5808 5804 5804 5805 5807 5808 5807 5806 5805 5803 5802 5801 5801
5834 5834 5834 5834 5834 5834 5833 5833 5834 5834 5834 5834 5833 5833 5832 5832 5832 5832 5833 5835 5834 5834 5833 5831 5832 5830 5829 5833 5836 5837 5836 5834 5832 5832 5832 5832 5832 5833 5833 5833 5832 5832 5831 5831 5830 5830 5829 5827 5827 5827 5827 5828 5827 5824 5820 5821 5823 5821 5815 5812 5812 5813 5811 5811 5812 5811 5807 5803 5802 5801 5802 5805 5806 5806 5807 5806 5802 5799 5798 5800 5802 5803 5801 5800 5798 5796 5795 5795
5828 5828 5828 5829 5829 5829 5828 5828 5829 5829 5829 5829 5828 5828 5828 5827 5826 5827 5829 5829 5829 5829 5828 5827 5827 5825 5826 5829 5830 5831 5832 5830 5828 5828 5828 5828 5829 5829 5829 5829 5828 5828 5827 5826 5826 5825 5824 5823 5821 5822 5824 5825 5824 5821 5816 5816 5817 5815 5813 5809 5807 5808 5808 5808 5808 5804 5802 5798 5795 5794 5795 5798 5801 5801 5803 5804 5802 5798 5794 5794 5796 5798 5797 5796 5795 5792 5790 5790
5823 5823 5823 5823 5823 5823 5823 5823 5823 5824 5824 5824 5823 5823 5823 5821 5820 5822 5823 5823 5824 5825 5823 5822 5822 5820 5821 5824 5826 5826 5826 5826 5824 5824 5824 5824 5824 5824 5824 5824 5824 5824 5822 5822 5822 5820 5819 5818 5815 5818 5822 5822 5819 5816 5813 5813 5812 5810 5810 5807 5804 5804 5804 5807 5806 5800 5798 5794 5791 5791 5789 5790 5794 5795 5796 5799 5800 5798 5794 5791 5791 5792 5792 5792 5791 5788 5786 5785
5818 5818 5818 5818 5818 5818 5818 5818 5818 5818 5818 5818 5818 5817 5817 5816 5815 5815 5816 5817 5819 5819 5818 5816 5816 5817 5817 5818 5820 5821 5821 5821 5820 5821 5821 5821 5820 5820 5820 5820 5820 5819 5818 5819 5817 5814 5815 5811 5809 5816 5820 5818 5815 5811 5809 5808 5808 5806 5805 5804 5801 5799 5801 5804 5802 5797 5794 5788 5786 5789 5785 5784 5788 5789 5791 5792 5793 5794 5793 5790 5788 5788 5788 5787 5786 5784 5782 5780
5813 5813 5813 5813 5813 5813 5813 5813 5812 5812 5812 5813 5813 5812 5811 5811 5810 5809 5809 5811 5813 5814 5814 5812 5809 5811 5814 5813 5814 5815 5815 5814 5816 5818 5818 5817 5816 5816 5816 5816 5815 5814 5816 5814 5809 5809 5810 5804 5806 5815 5816 5813 5810 5807 5805 5802 5802 5801 5800 5798 5796 5796 5797 5798 5797 5793 5790 5783 5781 5784 5779 5778 5783 5785 5786 5788 5787 5788 5790 5788 5787 5786 5784 5784 5782 5779 5777 5777
5808 5808 5808 5808 5808 5807 5808 5807 5807 5806 5806 5806 5807 5807 5806 5805 5804 5803 5802 5802 5807 5810 5808 5807 5805 5805 5807 5807 5808 5810 5809 5808 5812 5814 5814 5813 5813 5812 5812 5810 5809 5811 5811 5806 5803 5805 5802 5798 5804 5811 5809 5807 5805 5804 5801 5798 5797 5796 5795 5792 5789 5793 5793 5791 5791 5789 5785 5779 5776 5777 5773 5772 5779 5781 5782 5784 5782 5783 5784 5785 5784 5782 5781 5780 5778 5776 5773 5773
5803 5803 5803 5803 5803 5802 5802 5802 5801 5801 5801 5801 5801 5800 5800 5799 5798 5798 5796 5793 5797 5803 5802 5802 5802 5801 5800 5800 5802 5803 5802 5804 5806 5807 5809 5809 5809 5808 5806 5805 5804 5806 5803 5799 5801 5801 5794 5793 5800 5803 5802 5802 5800 5799 5797 5795 5795 5793 5791 5787 5785 5790 5788 5783 5785 5784 5779 5775 5772 5770 5765 5765 5773 5776 5778 5781 5778 5778 5780 5780 5780 5779 5778 5777 5774 5772 5770 5769
5797 5798 5798 5798 5797 5797 5797 5797 5796 5796 5795 5795 5795 5794 5794 5793 5793 5792 5791 5786 5785 5791 5797 5798 5795 5795 5796 5795 5795 5796 5795 5799 5799 5800 5805 5804 5803 5803 5801 5800 5798 5797 5796 5794 5796 5794 5789 5789 5791 5794 5797 5797 5795 5793 5791 5789 5791 5789 5786 5783 5783 5786 5784 5779 5780 5777 5772 5771 5769 5766 5756 5755 5767 5770 5772 5777 5775 5775 5776 5775 5776 5775 5775 5774 5771 5769 5766 5765
5792 5792 5792 5792 5792 5792 5792 5791 5791 5790 5790 5790 5788 5789 5788 5787 5788 5787 5785 5782 5777 5779 5787 5791 5788 5788 5790 5789 5790 5792 5791 5791 5792 5795 5798 5797 5796 5797 5796 5794 5790 5790 5791 5790 5788 5785 5783 5785 5785 5787 5790 5790 5789 5787 5785 5784 5785 5783 5780 5780 5780 5781 5779 5775 5775 5771 5765 5764 5764 5762 5751 5744 5757 5765 5766 5770 5770 5770 5770 5770 5770 5770 5770 5770 5768 5765 5762 5761
5786 5786 5786 5786 5786 5786 5786 5786 5785 5785 5784 5784 5783 5783 5782 5781 5782 5781 5780 5778 5772 5770 5774 5779 5780 5781 5783 5784 5786 5787 5785 5784 5787 5790 5791 5789 5790 5790 5789 5787 5785 5785 5785 5785 5781 5776 5776 5779 5781 5782 5783 5783 5781 5779 5781 5781 5779 5776 5775 5776 5777 5776 5774 5771 5770 5766 5760 5758 5758 5757 5750 5739 5744 5755 5760 5762 5762 5762 5764 5765 5765 5764 5764 5764 5763 5761 5758 5756
5779 5780 5780 5780 5780 5779 5780 5779 5780 5780 5779 5778 5778 5777 5776 5776 5776 5775 5775 5772 5766 5764 5765 5766 5770 5773 5777 5781 5782 5781 5779 5779 5783 5784 5783 5783 5783 5783 5782 5781 5780 5780 5780 5778 5773 5771 5773 5773 5774 5776 5777 5776 5773 5773 5777 5777 5771 5769 5770 5771 5771 5770 5769 5766 5765 5761 5756 5754 5750 5749 5751 5741 5733 5742 5752 5753 5753 5755 5757 5759 5759 5758 5758 5758 5757 5755 5753 5751
5773 5773 5774 5774 5774 5773 5773 5773 5773 5774 5773 5773 5772 5771 5770 5771 5771 5770 5771 5766 5759 5758 5759 5760 5762 5764 5767 5771 5774 5775 5775 5777 5777 5776 5777 5777 5776 5776 5775 5775 5775 5774 5774 5771 5767 5768 5769 5767 5767 5769 5769 5767 5768 5770 5771 5770 5766 5765 5765 5764 5765 5764 5762 5761 5759 5756 5753 5748 5741 5742 5750 5743 5728 5734 5742 5740 5743 5749 5750 5753 5754 5753 5752 5752 5751 5748 5747 5746
5767 5767 5767 5768 5768 5767 5767 5767 5767 5767 5767 5766 5766 5765 5765 5765 5765 5766 5765 5759 5753 5752 5754 5757 5758 5758 5758 5759 5761 5764 5768 5771 5771 5769 5770 5769 5768 5769 5769 5769 5769 5767 5766 5764 5763 5764 5763 5761 5761 5760 5760 5762 5763 5764 5764 5763 5761 5760 5760 5758 5758 5757 5756 5756 5752 5751 5749 5739 5733 5739 5747 5740 5724 5726 5733 5731 5735 5742 5742 5745 5746 5746 5748 5748 5744 5741 5740 5740
5760 5760 5761 5761 5761 5760 5761 5762 5761 5760 5760 5760 5759 5759 5760 5759 5760 5761 5757 5751 5749 5750 5752 5753 5753 5753 5752 5753 5754 5753 5755 5759 5762 5763 5762 5761 5762 5762 5762 5762 5762 5761 5760 5757 5757 5760 5759 5757 5754 5753 5755 5757 5757 5757 5757 5757 5755 5754 5755 5752 5752 5751 5750 5749 5745 5744 5740 5729 5729 5739 5744 5739 5721 5714 5722 5724 5728 5735 5734 5736 5736 5735 5742 5745 5740 5736 5735 5733
5753 5753 5753 5754 5754 5753 5754 5755 5754 5753 5753 5753 5753 5753 5753 5753 5754 5753 5747 5745 5747 5748 5749 5748 5747 5747 5747 5748 5748 5747 5747 5748 5752 5754 5754 5755 5755 5755 5754 5755 5754 5753 5752 5751 5751 5754 5753 5750 5749 5749 5750 5749 5749 5750 5750 5750 5750 5749 5749 5747 5745 5745 5743 5741 5737 5738 5732 5723 5729 5738 5739 5734 5717 5710 5718 5720 5722 5727 5728 5729 5727 5724 5731 5738 5735 5732 5731 5728
5747 5746 5746 5747 5747 5748 5748 5748 5748 5747 5746 5746 5745 5745 5746 5745 5745 5745 5743 5743 5743 5741 5744 5745 5742 5742 5741 5740 5740 5742 5741 5741 5743 5744 5745 5746 5747 5749 5749 5748 5747 5745 5744 5744 5745 5745 5744 5744 5745 5744 5743 5744 5744 5743 5742 5742 5744 5744 5743 5741 5739 5738 5735 5731 5729 5730 5726 5722 5727 5733 5731 5722 5710 5710 5717 5718 5720 5723 5722 5722 5720 5717 5721 5728 5728 5727 5727 5725
5740 5740 5739 5739 5740 5741 5742 5741 5742 5742 5741 5741 5739 5738 5738 5734 5737 5742 5740 5739 5737 5735 5738 5739 5736 5735 5733 5733 5734 5734 5733 5733 5735 5736 5737 5737 5738 5740 5741 5741 5741 5739 5738 5738 5736 5735 5734 5736 5738 5736 5738 5741 5738 5736 5736 5736 5738 5736 5735 5735 5733 5731 5727 5723 5724 5724 5720 5720 5723 5725 5720 5709 5702 5706 5711 5713 5717 5718 5717 5716 5714 5713 5715 5721 5722 5721 5721 5720
5733 5732 5733 5733 5732 5732 5734 5735 5735 5735 5735 5734 5732 5731 5728 5725 5732 5738 5733 5731 5733 5731 5731 5731 5729 5728 5727 5727 5726 5725 5725 5725 5726 5728 5728 5729 5729 5730 5732 5733 5734 5733 5732 5730 5728 5727 5726 5727 5730 5731 5732 5734 5731 5730 5731 5730 5729 5728 5729 5728 5725 5724 5721 5718 5721 5719 5714 5715 5716 5714 5709 5702 5700 5704 5705 5706 5708 5709 5710 5711 5709 5706 5708 5713 5715 5714 5715 5715
5726 5726 5725 5725 5724 5725 5727 5727 5728 5729 5729 5727 5723 5719 5720 5721 5727 5731 5727 5726 5726 5724 5724 5724 5723 5722 5720 5720 5719 5718 5719 5717 5718 5719 5718 5719 5721 5722 5724 5724 5725 5726 5724 5722 5722 5722 5719 5719 5724 5723 5722 5724 5724 5726 5726 5722 5721 5722 5722 5718 5715 5719 5719 5714 5714 5714 5711 5708 5707 5704 5700 5699 5700 5701 5703 5704 5703 5702 5703 5706 5704 5699 5701 5707 5707 5706 5708 5709
5717 5718 5717 5717 5720 5721 5720 5720 5722 5721 5721 5720 5711 5707 5714 5720 5723 5723 5720 5719 5718 5717 5716 5715 5716 5716 5713 5713 5712 5713 5713 5710 5710 5709 5708 5709 5711 5713 5715 5715 5718 5718 5716 5715 5715 5716 5712 5712 5718 5715 5711 5715 5716 5717 5718 5715 5714 5715 5712 5709 5711 5714 5713 5707 5704 5707 5707 5699 5697 5698 5694 5694 5697 5695 5696 5699 5699 5700 5700 5700 5697 5692 5695 5702 5702 5700 5702 5702
5708 5708 5708 5711 5714 5714 5712 5713 5713 5711 5711 5708 5700 5699 5709 5715 5716 5715 5712 5712 5712 5711 5707 5704 5707 5707 5705 5706 5706 5707 5706 5703 5703 5701 5700 5701 5701 5704 5706 5705 5708 5709 5709 5708 5706 5707 5704 5702 5709 5710 5705 5707 5707 5706 5708 5707 5705 5704 5703 5706 5708 5705 5702 5700 5695 5696 5698 5691 5690 5695 5691 5690 5693 5690 5690 5692 5690 5693 5694 5691 5688 5685 5687 5693 5695 5694 5694 5694
5699 5698 5700 5706 5708 5705 5704 5704 5703 5700 5698 5694 5690 5695 5702 5706 5710 5709 5706 5706 5705 5704 5701 5697 5699 5699 5697 5697 5699 5700 5697 5694 5695 5694 5693 5694 5693 5697 5699 5696 5696 5698 5700 5700 5695 5697 5697 5691 5696 5702 5698 5698 5700 5697 5697 5697 5695 5695 5699 5703 5701 5695 5692 5692 5687 5686 5688 5683 5681 5688 5688 5686 5688 5687 5689 5689 5686 5686 5685 5682 5680 5677 5677 5683 5689 5688 5685 5686
5690 5689 5692 5700 5701 5696 5696 5694 5691 5689 5685 5683 5684 5689 5694 5698 5702 5701 5698 5698 5697 5696 5693 5691 5692 5691 5689 5690 5692 5692 5688 5685 5686 5684 5684 5687 5686 5689 5692 5689 5687 5688 5690 5689 5685 5686 5687 5680 5681 5689 5690 5689 5691 5691 5689 5689 5689 5689 5690 5691 5690 5687 5684 5681 5679 5679 5678 5674 5672 5678 5682 5683 5684 5686 5687 5684 5682 5682 5679 5676 5674 5670 5669 5674 5680 5681 5679 5678
5681 5678 5681 5693 5692 5686 5685 5683 5679 5677 5674 5675 5678 5681 5686 5688 5690 5692 5691 5689 5688 5686 5685 5685 5685 5683 5682 5683 5684 5685 5682 5678 5678 5676 5675 5678 5679 5680 5682 5680 5680 5680 5680 5678 5675 5676 5676 5669 5668 5674 5678 5677 5680 5683 5684 5685 5685 5681 5678 5679 5679 5678 5675 5671 5670 5671 5671 5666 5664 5667 5671 5678 5683 5681 5679 5677 5676 5677 5675 5671 5669 5667 5666 5667 5669 5671 5672 5671
5672 5668 5672 5684 5681 5674 5674 5671 5668 5667 5665 5668 5672 5673 5676 5676 5678 5684 5684 5679 5677 5677 5677 5676 5676 5676 5675 5676 5676 5678 5676 5670 5670 5669 5667 5669 5671 5672 5673 5673 5673 5673 5670 5668 5666 5666 5665 5661 5659 5661 5663 5665 5669 5675 5676 5676 5674 5670 5667 5668 5670 5669 5667 5663 5658 5661 5664 5659 5658 5659 5656 5666 5678 5673 5670 5675 5671 5668 5669 5667 5664 5662 5662 5663 5663 5661 5661 5662
5661 5658 5663 5672 5667 5663 5664 5658 5655 5656 5654 5659 5666 5665 5664 5666 5669 5675 5676 5671 5668 5667 5668 5667 5668 5669 5669 5669 5669 5670 5668 5662 5661 5661 5661 5662 5662 5662 5666 5668 5667 5665 5662 5659 5658 5657 5655 5651 5649 5648 5651 5654 5660 5665 5665 5663 5662 5658 5654 5658 5661 5660 5659 5655 5649 5653 5657 5649 5650 5651 5639 5648 5671 5670 5665 5672 5667 5659 5660 5661 5660 5657 5654 5656 5658 5656 5654 5652
5650 5650 5653 5658 5656 5653 5652 5645 5644 5645 5644 5651 5655 5653 5654 5656 5659 5665 5667 5664 5659 5658 5658 5657 5658 5660 5660 5662 5662 5660 5658 5654 5651 5654 5654 5653 5654 5656 5659 5660 5661 5659 5655 5652 5651 5648 5645 5641 5637 5637 5640 5644 5648 5653 5654 5654 5653 5648 5645 5651 5654 5650 5649 5647 5643 5645 5645 5638 5641 5639 5622 5631 5662 5666 5659 5663 5662 5656 5655 5654 5653 5650 5646 5648 5650 5649 5648 5644
5640 5639 5639 5645 5645 5642 5639 5636 5636 5636 5637 5641 5641 5641 5645 5645 5647 5654 5658 5657 5653 5649 5648 5648 5650 5650 5650 5652 5652 5651 5651 5646 5644 5646 5646 5643 5646 5650 5652 5652 5653 5652 5649 5646 5643 5637 5635 5634 5630 5627 5629 5632 5637 5643 5646 5647 5645 5639 5639 5644 5644 5642 5640 5637 5635 5634 5628 5626 5633 5626 5610 5621 5651 5657 5651 5652 5654 5652 5652 5649 5646 5642 5640 5642 5643 5641 5640 5636
5630 5628 5627 5631 5632 5630 5629 5631 5630 5626 5626 5630 5628 5631 5636 5632 5635 5645 5649 5648 5646 5641 5639 5640 5642 5641 5640 5640 5639 5641 5642 5639 5637 5638 5636 5635 5637 5642 5645 5644 5644 5644 5643 5640 5636 5631 5627 5626 5623 5620 5619 5621 5626 5634 5640 5641 5636 5629 5631 5635 5635 5634 5631 5627 5627 5622 5614 5618 5623 5614 5605 5617 5637 5645 5643 5644 5645 5643 5644 5644 5639 5635 5635 5637 5636 5633 5631 5628
5618 5616 5618 5620 5618 5617 5619 5623 5622 5615 5616 5619 5616 5618 5624 5623 5627 5636 5635 5633 5636 5635 5630 5628 5630 5629 5627 5629 5629 5629 5631 5630 5628 5626 5626 5627 5629 5634 5638 5636 5634 5636 5635 5632 5631 5627 5619 5616 5617 5615 5612 5614 5617 5624 5632 5631 5625 5621 5623 5627 5626 5624 5622 5620 5615 5609 5609 5612 5609 5606 5607 5609 5618 5631 5636 5638 5638 5634 5633 5633 5630 5630 5631 5630 5627 5625 5623 5623
5607 5605 5610 5611 5605 5602 5606 5611 5613 5608 5608 5609 5604 5604 5612 5614 5617 5623 5622 5622 5626 5628 5620 5614 5616 5617 5616 5619 5619 5616 5618 5619 5616 5614 5615 5617 5620 5624 5627 5626 5624 5625 5625 5623 5622 5620 5609 5605 5611 5610 5605 5607 5609 5612 5619 5620 5616 5615 5615 5616 5617 5615 5614 5611 5604 5603 5609 5603 5593 5600 5607 5601 5604 5619 5625 5627 5629 5626 5623 5623 5623 5624 5624 5620 5619 5619 5618 5617
5596 5595 5600 5599 5592 5589 5592 5598 5602 5601 5598 5597 5593 5593 5599 5602 5605 5610 5614 5615 5615 5614 5608 5602 5606 5609 5609 5611 5608 5604 5606 5607 5604 5604 5605 5606 5609 5611 5611 5611 5611 5613 5614 5611 5610 5610 5599 5592 5600 5602 5596 5599 5601 5601 5606 5609 5609 5610 5608 5606 5609 5608 5605 5601 5597 5600 5604 5592 5583 5593 5599 5594 5598 5607 5609 5613 5618 5614 5612 5613 5615 5615 5613 5611 5612 5612 5610 5608
5587 5584 5586 5586 5581 5579 5583 5587 5589 5588 5587 5587 5584 5583 5587 5590 5594 5599 5604 5604 5600 5600 5598 5593 5596 5601 5603 5603 5599 5592 5594 5595 5593 5595 5597 5596 5596 5596 5594 5595 5598 5601 5600 5596 5598 5599 5590 5581 5589 5593 5586 5587 5592 5594 5596 5597 5596 5599 5601 5600 5600 5599 5597 5595 5592 5594 5594 5585 5581 5587 5587 5585 5593 5599 5600 5603 5604 5601 5600 5603 5605 5605 5603 5604 5605 5602 5599 5596
5577 5573 5572 5573 5571 5572 5575 5577 5577 5574 5575 5576 5572 5573 5578 5579 5582 5588 5592 5591 5586 5588 5590 5585 5587 5593 5593 5592 5588 5581 5584 5587 5585 5587 5591 5587 5583 5583 5581 5581 5587 5589 5586 5584 5586 5587 5580 5574 5579 5584 5574 5572 5582 5587 5586 5586 5584 5584 5588 5591 5592 5591 5593 5593 5591 5589 5586 5580 5579 5581 5575 5575 5588 5596 5594 5593 5592 5591 5593 5595 5597 5598 5595 5594 5595 5592 5587 5586
5566 5563 5560 5559 5560 5563 5566 5567 5567 5562 5562 5564 5564 5566 5568 5567 5570 5575 5576 5576 5575 5576 5579 5579 5580 5582 5580 5578 5576 5573 5577 5580 5576 5577 5582 5577 5573 5573 5572 5571 5575 5576 5574 5574 5574 5572 5569 5565 5569 5571 5560 5556 5572 5577 5572 5574 5572 5566 5570 5581 5586 5587 5587 5586 5585 5584 5581 5576 5574 5572 5565 5567 5582 5589 5583 5582 5584 5584 5584 5587 5589 5588 5586 5585 5585 5581 5578 5576
5552 5552 5551 5546 5545 5552 5558 5556 5555 5551 5550 5555 5557 5556 5556 5556 5561 5562 5558 5559 5565 5566 5568 5569 5569 5569 5567 5565 5566 5568 5571 5571 5567 5567 5568 5566 5565 5566 5564 5562 5565 5565 5564 5564 5562 5560 5558 5556 5558 5559 5548 5546 5561 5566 5561 5561 5551 5541 5557 5579 5586 5584 5580 5575 5573 5575 5578 5574 5566 5559 5559 5565 5574 5574 5570 5572 5577 5577 5576 5578 5579 5576 5576 5576 5575 5572 5569 5568